Flag Weather past 2 weeks in Bandar Seri Begawan, Brunei

Now
82 °F

Passing clouds.


Feels Like: 91 °F
Forecast: 76 / 89 °F
Wind: 5 mph from South

Location: Brunei Airport

Current Time: Nov 27, 2014 at 9:18:46 PM

Latest Report: Nov 27, 2014 at 8:30 PM


Visibility: N/A

Pressure: 29.80 "Hg

Humidity: 84%

Dew point: 77 °F

Location of Bandar Seri BegawanLocation

Historic Weather in Bandar Seri Begawan — Graph

°F

Bandar Seri Begawan temperature yesterday

Maximum temperature yesterday: 88 °F (at 11:30 AM)
Minimum temperature yesterday: 77 °F (at 2:00 AM)
Average temperature yesterday: 82 °F

Past Weeks' High & Low Weather Summary

 TemperatureHumidityPressure
High91 °F (Nov 24, 11:30 AM)100% (Nov 13, 1:00 AM)29.89 "Hg (Nov 13, 1:00 AM)
Low75 °F (Nov 13, 2:30 AM)56% (Nov 24, 1:30 PM)29.68 "Hg (Nov 16, 4:00 PM)
Average82 °F86%29.80 "Hg
* Reported Nov 12 8:00 PM — Nov 27 8:00 PM, Bandar Seri Begawan, Weather by CustomWeather, © 2014

Note: Actual official high and low records may vary slightly from our data, if they occured in-between our weather recording intervals... More about our weather records

Advertising

Bandar Seri Begawan weather history for previous 24 hours

 ConditionsComfort  
Time TempWeatherWind HumidityBarometerVisibility
8:00 PM
Nov 27
82 °FPassing clouds.5 mph84%29.80 "HgN/A
7:30 PM84 °FPassing clouds.2 mph79%29.77 "HgN/A
7:00 PM82 °FThunderstorms. Passing clouds.3 mph84%29.77 "HgN/A
6:30 PM82 °FThunderstorms. Passing clouds.6 mph84%29.77 "HgN/A
6:00 PM84 °FThunderstorms. Broken clouds.7 mph84%29.77 "HgN/A
5:30 PM84 °FThunderstorms. Broken clouds.10 mph79%29.74 "HgN/A
5:00 PM84 °FBroken clouds.10 mph79%29.71 "HgN/A
4:00 PM86 °FBroken clouds.13 mph79%29.71 "HgN/A
3:30 PM86 °FBroken clouds.14 mph75%29.71 "HgN/A
3:00 PM86 °FBroken clouds.13 mph79%29.71 "HgN/A
2:30 PM86 °FBroken clouds.14 mph79%29.71 "HgN/A
2:00 PM86 °FBroken clouds.10 mph75%29.74 "HgN/A
1:30 PM86 °FBroken clouds.12 mph79%29.74 "HgN/A
1:00 PM86 °FPartly sunny.10 mph79%29.74 "HgN/A
12:30 PM86 °FPartly sunny.10 mph79%29.77 "HgN/A
12:00 PM86 °FBroken clouds.9 mph79%29.77 "HgN/A
11:30 AM84 °FBroken clouds.12 mph84%29.80 "HgN/A
11:00 AM84 °FBroken clouds.9 mph84%29.80 "HgN/A
10:30 AM86 °FBroken clouds.6 mph75%29.80 "HgN/A
10:00 AM86 °FBroken clouds.8 mph79%29.83 "HgN/A
9:30 AM86 °FPartly sunny.8 mph79%29.80 "HgN/A
9:00 AM84 °FThunderstorms. Partly sunny.6 mph84%29.83 "HgN/A
8:30 AM82 °FThunderstorms. Partly sunny.7 mph89%29.80 "HgN/A
7:30 AM79 °FThunderstorms. Partly sunny.3 mph100%29.80 "HgN/A
7:00 AM79 °FThunderstorms. Broken clouds.6 mph94%29.77 "HgN/A
6:30 AM77 °FBroken clouds.3 mph100%29.77 "HgN/A
6:00 AM77 °FPassing clouds.5 mph100%29.74 "HgN/A
5:30 AM77 °FPassing clouds.1 mph100%29.74 "HgN/A
5:00 AM77 °FPassing clouds.2 mph100%29.74 "HgN/A
4:30 AM79 °FPassing clouds.2 mph94%29.74 "HgN/A
4:00 AM79 °FThunderstorms. Partly cloudy.3 mph100%29.74 "HgN/A
3:30 AM79 °FThunderstorms. Passing clouds.3 mph100%29.74 "HgN/A
3:00 AM79 °FThunderstorms. Passing clouds.3 mph100%29.74 "HgN/A
2:30 AM79 °FThunderstorms. Passing clouds.2 mph100%29.74 "HgN/A
2:00 AM79 °FThunderstorms. Passing clouds.2 mph100%N/A6 mi
1:30 AM79 °FThunderstorms. Passing clouds.2 mph94%29.77 "Hg6 mi
1:00 AM77 °FThunderstorms. Partly cloudy.3 mph100%29.77 "Hg4 mi
12:30 AM81 °FThunderstorms. Partly cloudy.9 mph94%29.77 "Hg3 mi
12:00 AM81 °FThunderstorms. Passing clouds.3 mph94%29.77 "Hg6 mi
11:30 PM
Nov 26
81 °FPassing clouds.6 mph94%29.77 "HgN/A
11:00 PM81 °FPassing clouds.3 mph94%29.77 "HgN/A
10:30 PM81 °FPassing clouds.7 mph94%29.77 "HgN/A
10:00 PM82 °FPassing clouds.6 mph89%29.77 "HgN/A
9:30 PM82 °FPassing clouds.1 mph89%29.77 "HgN/A
9:00 PM82 °FPassing clouds.3 mph89%29.77 "HgN/A
Weather by CustomWeather, © 2014

See weather overviewHow to use our weather pages